Location: Kitt Peak
(31.9639°N, 111.5992°W)
Time: 04:06:15
(UTC-07:00)

Hubble Space Telescope - Visible Passes

Search period start: 15 December 2019 00:00
Search period end: 25 December 2019 00:00
Orbit: 536 x 540 km, 28.5° (Epoch: 14 December)

Date Brightness Start Highest point End Pass type
(mag) Time Alt. Az. Time Alt. Az. Time Alt. Az.
15 Dec 4.0 04:25:33 11° ESE 04:25:33 11° ESE 04:25:45 10° ESE visible
15 Dec 1.9 06:00:54 14° SW 06:04:00 38° SSE 06:07:50 10° E visible
16 Dec 1.7 05:51:15 23° SW 05:53:21 42° S 05:57:17 10° E visible
17 Dec 1.5 05:41:30 35° SW 05:42:44 46° S 05:46:42 10° E visible
18 Dec 1.2 05:31:40 47° SSW 05:32:07 50° S 05:36:07 10° E visible
19 Dec 1.4 05:21:46 51° SSE 05:21:46 51° SSE 05:25:30 10° E visible
20 Dec 1.9 05:11:50 41° SE 05:11:50 41° SE 05:14:53 10° ESE visible
20 Dec 1.9 06:48:00 10° W 06:51:49 36° SSW 06:55:38 10° SE visible
21 Dec 2.5 05:01:52 31° ESE 05:01:52 31° ESE 05:04:16 10° ESE visible
21 Dec 2.1 06:37:28 10° WSW 06:41:10 32° SSW 06:44:51 10° SE visible
22 Dec 3.0 04:51:54 23° ESE 04:51:54 23° ESE 04:53:37 10° ESE visible
22 Dec 2.3 06:27:14 11° WSW 06:30:30 27° SSW 06:34:02 10° SE visible
23 Dec 3.5 04:41:56 17° ESE 04:41:56 17° ESE 04:42:57 10° ESE visible
23 Dec 2.5 06:17:16 13° WSW 06:19:50 23° SSW 06:23:06 10° SSE visible
24 Dec 3.9 04:31:59 12° ESE 04:31:59 12° ESE 04:32:16 10° ESE visible
24 Dec 2.7 06:07:19 15° SW 06:09:09 19° SSW 06:12:06 10° SSE visible
